Location: Buenos Aires
(34.6076°S, 58.4371°W)
Time: 18:54:42
(UTC+00:00)

ISS - Pass Details

Date: 15 October 2025
Orbit: 414 x 421 km, 51.6° (Epoch: 07 November)

Event Time Altitude Azimuth Distance (km) Brightness Sun altitude
Rises 22:04:23 0° 280° (W) 2,373 1.6 -0.1°
Reaches altitude 10° 22:06:51 10° 263° (W) 1,512 1.4 -0.6°
Maximum altitude 22:09:28 20° 212° (SSW) 1,038 -1.1 -1.1°
Drops below altitude 10° 22:12:06 10° 162° (SSE) 1,519 -1.0 -1.6°
Sets 22:14:35 0° 144° (SE) 2,387 -0.2 -2.1°
